TimeCET,TemperatureF,Dew PointF,Humidity,Sea Level PressureIn,VisibilityMPH,Wind Direction,Wind SpeedMPH,Gust SpeedMPH,PrecipitationIn,Events,Conditions,WindDirDegrees,DateUTC
1:00 AM,35,23,49,30.10,,NE,11.2,,,,,40,2013-03-04 00:00:00
5:15 AM,33.8,23.0,65,30.15,-9999.0,NNE,6.9,-,N/A,,Clear,20,2013-03-04 04:15:00
5:45 AM,32.0,23.0,69,30.15,-9999.0,NNE,5.8,-,N/A,,Clear,20,2013-03-04 04:45:00
6:00 AM,-9999,-9999,N/A,-9999,-9999.0,NNE,5.8,-,N/A,,Clear,20,2013-03-04 05:00:00
6:15 AM,32.0,23.0,69,30.15,-9999.0,North,4.6,-,N/A,,Clear,10,2013-03-04 05:15:00
7:00 AM,33,24,60,30.20,19,North,4.5,,,,Partly Cloudy,0,2013-03-04 06:00:00
7:45 AM,33.8,24.8,70,30.21,-9999.0,WNW,4.6,-,N/A,,Clear,290,2013-03-04 06:45:00
8:15 AM,35.6,26.6,70,30.21,-9999.0,NW,4.6,-,N/A,,Clear,320,2013-03-04 07:15:00
8:45 AM,39.2,26.6,61,30.21,-9999.0,North,6.9,-,N/A,,Clear,350,2013-03-04 07:45:00
9:00 AM,-9999,-9999,N/A,-9999,-9999.0,NNW,5.8,-,N/A,,Dust Whirls,340,2013-03-04 08:00:00
9:15 AM,39.2,26.6,61,30.24,-9999.0,NNW,8.1,-,N/A,,Clear,340,2013-03-04 08:15:00
9:45 AM,42.8,26.6,53,30.24,6.2,North,8.1,-,N/A,,Partly Cloudy,360,2013-03-04 08:45:00
10:15 AM,42.8,23.0,46,30.24,6.2,NNW,10.4,-,N/A,,Partly Cloudy,340,2013-03-04 09:15:00
10:45 AM,42.8,21.2,42,30.24,6.2,North,11.5,-,N/A,,Partly Cloudy,360,2013-03-04 09:45:00
11:15 AM,44.6,23.0,43,30.24,6.2,North,10.4,-,N/A,,Partly Cloudy,350,2013-03-04 10:15:00
11:45 AM,44.6,19.4,37,30.24,-9999.0,North,11.5,-,N/A,,Clear,10,2013-03-04 10:45:00
12:00 PM,-9999,-9999,N/A,-9999,-9999.0,North,11.5,-,N/A,,Clear,360,2013-03-04 11:00:00
12:15 PM,46.4,17.6,32,30.24,-9999.0,North,11.5,-,N/A,,Clear,360,2013-03-04 11:15:00
1:15 PM,46.4,17.6,32,30.24,-9999.0,North,10.4,-,N/A,,Clear,360,2013-03-04 12:15:00
1:45 PM,46.4,15.8,29,30.24,-9999.0,North,10.4,-,N/A,,Clear,360,2013-03-04 12:45:00
2:15 PM,46.4,17.6,32,30.24,-9999.0,North,9.2,-,N/A,,Clear,350,2013-03-04 13:15:00
2:45 PM,46.4,17.6,32,30.24,-9999.0,North,10.4,-,N/A,,Clear,360,2013-03-04 13:45:00
3:15 PM,48.2,17.6,30,30.24,-9999.0,NNW,9.2,-,N/A,,Clear,330,2013-03-04 14:15:00
3:45 PM,46.4,19.4,34,30.24,-9999.0,NNW,8.1,-,N/A,,Clear,340,2013-03-04 14:45:00
4:15 PM,46.4,17.6,32,30.27,-9999.0,North,9.2,-,N/A,,Clear,360,2013-03-04 15:15:00
4:45 PM,46.4,17.6,32,30.27,-9999.0,North,6.9,-,N/A,,Clear,10,2013-03-04 15:45:00
5:00 PM,-9999,-9999,N/A,-9999,-9999.0,North,-9999.0,-,N/A,,Unknown,0,2013-03-04 16:00:00
7:00 PM,39,17,27,30.33,,NE,4.5,,,,,40,2013-03-04 18:00:00